DELTA 1 DEB, 7041

Orbit data source: Space-Track

DELTA 1 DEB, 7041 is space debris in SSO originally from a launch on Tue, 06 Nov 1973 UTC launched from the Air Force Western Test Range (AFWTR). Debris objects in space refer to the collection of defunct objects orbiting the Earth. Examples of debris include non-operational satellites, rocket bodies, and fragments generated from explosions, collisions, or faulty payload assembly.

Loading next visibility...
Identifier
7041, 1973-086AH
Orbit
SSO
Last TLE update
16 hours ago
Origin
Manufacturer
Unknown
Mission
Spacecraft
Bus & Motor
Unknown
Mass
Unknown
Launch date (UTC)
1973-11-06 (52 years ago)
Launch vehicle
Unknown
Launch site
Air Force Western Test Range (AFWTR)
Object type
Payload
Rocket body
Debris
Shape & HBR
Unknown
Radar Cross Section
Medium (>0.1 m² and <1 m²)

Expand to show TLE details & history

TLE from 16 hours ago
0 DELTA 1 DEB
1  7041U 73086AH  25199.05940656  .00000465  00000-0  36664-2 0  9999
2  7041 101.5902 235.0018 0193707 129.7204 259.7144 12.37529484313681
Epoch: 2025-07-18T01:25Z
TLE epoch observation values (Epoch: 2025-07-18T01:25:32.726Z)
Latitude
26.69561°
Longitude
-88.39149°
Altitude
1,550.21 km
Speed
7.081 km/s
True Right ascension
15h 16m 26s
True Declination
26° 34' 18"
Sunlit
Object was in daylight at epoch
Visualization orbit readout
Latitude
4.4127°
Longitude
99.04545°
Altitude
1,413.256 km
Speed
7.202 km/s
Apparent Right ascension
01h 13m 02s
Apparent Declination
-33° 49' 07"
Sunlit
Object is in daylight
Visualization observer readout
Local Sidereal Time
06:30:10
Azimuth
237.203° WSW
Elevation
-13.806°
Doppler factor
1
Orbital elements
Apogee altitude
1,667.535 km
Perigee altitude
1,361.757 km
Semi-major axis
7,892.783 km
Eccentricity
0.01937
Inclination
101.5902°
RAAN
235.0018°
Arg. of periapsis
129.7204°
True anomaly
257.54028°
Mean anomaly
259.7144°
Eccentric anomaly
258.62634°
Mean motion
3.09527 °/min
Orbital period
116.31 mins
BSTAR
0.0036664
Loading maneuver chart data...
Loading SW <> Apogee altitude chart data...
Loading historical data...
Loading historical data...
Loading historical data...
Loading historical data...
Loading historical data...
Loading historical data...
Loading historical data...
|